Location: Stuttgart
(48.7824°N, 9.1964°E)
Time: 01:05:52
(UTC+01:00)

ISS - Visible Passes

Search period start: 24 January 2019 00:00
Search period end: 03 February 2019 00:00
Orbit: 404 x 410 km, 51.6° (Epoch: 24 January)

Date Brightness Start Highest point End Pass type
(mag) Time Alt. Az. Time Alt. Az. Time Alt. Az.
24 Jan -1.4 17:48:47 10° SSE 17:49:50 11° SE 17:50:54 10° ESE visible
24 Jan -2.6 19:22:33 10° SW 19:24:47 37° SSW 19:24:47 37° SSW visible
25 Jan -2.9 18:31:27 10° SW 18:34:30 35° SSE 18:35:41 26° ESE visible
25 Jan -0.7 20:07:39 10° W 20:08:24 16° W 20:08:24 16° W visible
26 Jan -3.6 19:16:13 10° WSW 19:19:13 72° W 19:19:13 72° W visible
27 Jan -3.7 18:24:51 10° WSW 18:28:08 67° SSE 18:30:00 23° ENE visible
27 Jan -1.1 20:01:32 10° W 20:02:43 20° WNW 20:02:43 20° WNW visible
28 Jan -3.6 19:10:01 10° W 19:13:18 59° NNW 19:13:26 58° N visible
29 Jan -3.8 18:18:31 10° WSW 18:21:50 75° NNW 18:24:07 19° ENE visible
29 Jan -1.4 19:55:23 10° WNW 19:56:50 23° WNW 19:56:50 23° WNW visible
30 Jan -3.4 19:03:51 10° W 19:07:05 49° N 19:07:30 46° NNE visible
31 Jan -3.4 18:12:18 10° W 18:15:33 55° N 18:18:09 15° ENE visible
31 Jan -1.8 19:49:06 10° WNW 19:50:52 28° WNW 19:50:52 28° WNW visible
01 Feb -3.4 18:57:36 10° WNW 19:00:50 50° N 19:01:32 41° NE visible
01 Feb -0.2 20:34:12 10° WNW 20:34:14 10° WNW 20:34:14 10° WNW visible
02 Feb -3.3 18:06:03 10° WNW 18:09:16 49° N 18:12:12 12° ENE visible
02 Feb -2.5 19:42:43 10° WNW 19:44:55 39° WNW 19:44:55 39° WNW visible
